Weather History for Evanston, WY

Change the Weather History Date:

Saturday, January 11, 2014

  Actual Average Record
Temperature  
Mean Temperature 34 °F 22 °F  
Max Temperature 41 °F 29 °F 44 °F (1999)
Min Temperature 27 °F 14 °F -4 °F (2011)
Degree Days  
Heating Degree Days 31 43  
Month to date heating degree days 464 483  
Since 1 July heating degree days 3776 3962  
Cooling Degree Days 0 0  
Month to date cooling degree days 0 0  
Year to date cooling degree days 0 0  
Moisture  
Dew Point 26 °F    
Average Humidity 66    
Maximum Humidity 78    
Minimum Humidity 54    
Precipitation  
Precipitation T in 0.02 in 0.06 in (2015)
Month to date precipitation T 0.21  
Year to date precipitation T 0.21  
Sea Level Pressure  
Sea Level Pressure 29.94 in    
Wind  
Wind Speed 21 mph (WSW)    
Max Wind Speed 40 mph    
Max Gust Speed 51 mph    
Visibility 8 miles    
Events Fog , Snow    
T = Trace of Precipitation, MM = Missing Value Source: NWS Daily Summary

Daily Weather History Graph

Daily Weather History Graph

Search for Another Location

Airport:

Trip Planner

Search our weather history database for the weather conditions in past years. The results will help you decide how hot, cold, wet, or windy it might be!

Date:

Astronomy

Jan. 11, 2014 Rise Set
Actual Time 7:48 AM MST 5:15 PM MST
Civil Twilight 7:18 AM MST 5:46 PM MST
Nautical Twilight 6:44 AM MST 6:20 PM MST
Astronomical Twilight 6:10 AM MST 6:53 PM MST
Moon 2:02 PM MST (1/11) 3:56 AM MST (1/11)
Length of Visible Light 10h 27m
Length of Day
9h 26m
Waxing Gibbous, 83% of the Moon is Illuminated
Jan 11
Waxing Gibbous
Jan 15
Full
Jan 23
Last Quarter
Jan 30
New
Feb 6
First Quarter

Hourly Weather History & Observations

Time (MST) Temp. Windchill Dew Point Humidity Pressure Visibility Wind Dir Wind Speed Gust Speed Precip Events Conditions
12:53 AM 32.0 °F 19.5 °F 24.1 °F 73% 30.13 in 10.0 mi WSW 21.9 mph - N/A   Overcast
1:53 AM 32.0 °F 18.1 °F 24.1 °F 73% 30.11 in 10.0 mi WSW 27.6 mph 34.5 mph N/A   Mostly Cloudy
2:11 AM 32.0 °F 17.9 °F 24.1 °F 73% 30.09 in 10.0 mi WSW 28.8 mph 36.8 mph N/A   Scattered Clouds
2:53 AM 30.9 °F 18.1 °F 24.1 °F 76% 30.12 in 10.0 mi WSW 21.9 mph - N/A   Scattered Clouds
3:49 AM 33.8 °F 23.2 °F 24.8 °F 70% 30.13 in 10.0 mi SW 17.3 mph 29.9 mph N/A   Mostly Cloudy
3:53 AM 32.0 °F 22.5 °F 25.0 °F 75% 30.15 in 10.0 mi SW 12.7 mph 29.9 mph N/A   Mostly Cloudy
4:53 AM 30.0 °F 19.1 °F 23.0 °F 75% 30.15 in 10.0 mi WSW 15.0 mph - N/A   Scattered Clouds
5:36 AM 33.1 °F 23.4 °F 25.0 °F 72% 30.13 in 10.0 mi SW 13.8 mph - N/A   Mostly Cloudy
5:53 AM 33.1 °F 22.6 °F 25.0 °F 72% 30.14 in 10.0 mi SSW 16.1 mph - N/A   Overcast
6:44 AM 30.0 °F 19.1 °F 24.1 °F 79% 30.12 in 10.0 mi SW 15.0 mph - N/A   Overcast
6:53 AM 30.0 °F 19.1 °F 24.1 °F 79% 30.14 in 10.0 mi SW 15.0 mph - N/A   Overcast
7:53 AM 30.9 °F 19.8 °F 24.1 °F 76% 30.13 in 10.0 mi SSW 16.1 mph - N/A   Scattered Clouds
8:53 AM 30.9 °F 18.7 °F 24.1 °F 76% 30.12 in 10.0 mi SW 19.6 mph - N/A   Mostly Cloudy
9:53 AM 30.9 °F 21.2 °F 25.0 °F 79% 30.11 in 10.0 mi SW 12.7 mph - N/A   Clear
10:53 AM 33.1 °F 25.5 °F 25.0 °F 72% 30.08 in 10.0 mi SW 9.2 mph - N/A   Clear
11:53 AM 36.0 °F 24.7 °F 27.0 °F 70% 29.99 in 10.0 mi SW 21.9 mph - N/A   Clear
12:53 PM 39.9 °F 30.0 °F 27.0 °F 60% 29.92 in 10.0 mi SW 21.9 mph - N/A   Clear
1:53 PM 39.9 °F 31.1 °F 27.0 °F 60% 29.89 in 10.0 mi SW 17.3 mph - N/A   Clear
2:53 PM 39.0 °F 31.4 °F 26.1 °F 60% 29.86 in 10.0 mi SW 12.7 mph - N/A   Clear
3:53 PM 39.0 °F 27.4 °F 27.0 °F 62% 29.81 in 10.0 mi SW 28.8 mph - N/A   Mostly Cloudy
4:53 PM 37.9 °F 27.6 °F 27.0 °F 65% 29.81 in 10.0 mi SW 20.7 mph - N/A   Overcast
5:53 PM 37.9 °F 26.8 °F 27.0 °F 65% 29.78 in 10.0 mi SW 24.2 mph - N/A   Overcast
6:53 PM 39.9 °F 29.0 °F 25.0 °F 55% 29.79 in 10.0 mi SW 26.5 mph 41.4 mph N/A   Overcast
7:53 PM 39.0 °F 28.5 °F 26.1 °F 60% 29.74 in 10.0 mi SW 23.0 mph - N/A   Overcast
8:53 PM 37.0 °F 27.0 °F 27.0 °F 67% 29.73 in 10.0 mi SW 18.4 mph - 0.00 in   Overcast
9:53 PM 37.0 °F 24.7 °F 27.0 °F 67% 29.70 in 9.0 mi SW 28.8 mph - 0.00 in   Mostly Cloudy
10:53 PM 36.0 °F 23.2 °F 30.0 °F 79% 29.70 in 5.0 mi West 28.8 mph 34.5 mph 0.00 in Snow Light Snow
11:15 PM 35.1 °F 23.5 °F 30.0 °F 82% 29.76 in 4.0 mi West 21.9 mph 33.4 mph 0.00 in Snow Light Snow
11:28 PM 34.0 °F 21.5 °F 30.0 °F 85% 29.76 in 2.5 mi West 24.2 mph - 0.00 in Snow Light Snow
11:35 PM 34.0 °F 20.8 °F 30.0 °F 85% 29.77 in 4.0 mi WNW 27.6 mph 39.1 mph 0.00 in Snow Light Snow
11:43 PM 30.9 °F 17.5 °F 28.9 °F 92% 29.77 in 4.0 mi NNW 24.2 mph 35.7 mph 0.00 in Snow Light Snow
11:46 PM 30.9 °F 16.2 °F 28.0 °F 89% 29.77 in 1.5 mi NNW 29.9 mph 35.7 mph 0.00 in Snow Light Snow
11:50 PM 30.2 °F 14.5 °F 28.4 °F 93% 29.77 in 0.5 mi NW 33.4 mph 43.7 mph 0.00 in Fog , Snow Snow
11:53 PM 28.9 °F 12.1 °F 27.0 °F 92% 29.74 in 0.2 mi NW 36.8 mph 50.6 mph 0.00 in Fog , Snow Snow